Voltar ao catálogo

STARLINK-2756

AtivoComunicaçõesVLEO
NORAD 48683·PAYLOAD·🇺🇸 United States

Lançado May 26, 2021 de Cape Canaveral Space Force Station

Loading…

Próximas Passagens (próximas 24 horas)

TLE

AtualizadoSource: CelesTrak SupGP

Época: Sep 14, 2026, 21:34 UTC

1 48683C 21044AX  26257.89909722  .00099005  00000+0  31809-2 0  2570
2 48683  53.1582 264.6573 0001213 100.1113   6.9974 15.31681079    19

Acompanhe STARLINK-2756 em tempo real com AllMySat

Download on the App Store